Location: Bluejay Creek
(37.7819°N, 119.6118°W)
Time: 12:46:44
(UTC+00:00)

Cosmos 1674 Rocket - Pass Details

Date: 05 August 2024
Orbit: 599 x 625 km, 82.5° (Epoch: 16 September)

Event Time Altitude Azimuth Distance (km) Brightness Sun altitude
Rises 12:19:24 0° 356° (N) 2,918 7.4 -9.1°
Reaches altitude 10° 12:21:41 10° 1° (N) 2,008 6.6 -8.7°
Maximum altitude 12:26:05 60° 81° (E) 718 4.3 -8.0°
Drops below altitude 10° 12:30:27 10° 162° (SSE) 1,990 6.1 -7.2°
Sets 12:32:41 0° 166° (SSE) 2,890 6.9 -6.8°
